Flag for U.S.A. Weather past 2 weeks in San Jose, California, U.S.A.

Now
78 °F

Partly sunny.


Feels Like: 79 °F
Forecast: 64 / 73 °F
Wind: 9 mph from Southeast

Location: San Jose International Airport

Current Time: Sep 18, 2014 at 1:20:11 PM

Latest Report: Sep 18, 2014 at 12:53 PM


Visibility: 10 mi

Pressure: 29.86 "Hg

Humidity: 43%

Dew point: 54 °F

Location of San JoseLocation

Historic Weather in San Jose — Graph

°F

San Jose temperature yesterday

Maximum temperature yesterday: 82 °F (at 1:53 PM)
Minimum temperature yesterday: 60 °F (at 3:53 AM)
Average temperature yesterday: 70 °F

Past Weeks' High & Low Weather Summary

 TemperatureHumidityPressure
High88 °F (Sep 10, 3:53 PM)97% (Sep 10, 5:53 AM)30.00 "Hg (Sep 10, 5:53 AM)
Low55 °F (Sep 9, 2:53 AM)22% (Sep 11, 2:53 PM)29.68 "Hg (Sep 3, 4:53 PM)
Average67 °F70%29.85 "Hg
* Reported Sep 3 11:53 AM — Sep 18 11:53 AM, San Jose, Weather by CustomWeather, © 2014

Note: Actual official high and low records may vary slightly from our data, if they occured in-between our weather recording intervals... More about our weather records

Advertising

San Jose weather history for previous 24 hours

 ConditionsComfort  
Time TempWeatherWind HumidityBarometerVisibility
11:53 AM
Sep 18
75 °FBroken clouds.10 mph52%29.87 "Hg10 mi
10:53 AM73 °FBroken clouds.9 mph59%29.87 "Hg10 mi
9:53 AM71 °FBroken clouds.12 mph73%29.86 "Hg10 mi
8:53 AM69 °FBroken clouds.9 mph76%29.85 "Hg10 mi
7:53 AM67 °FBroken clouds.8 mph85%29.84 "Hg10 mi
6:53 AM67 °FMostly cloudy.8 mph90%29.82 "Hg10 mi
5:53 AM69 °FPartly cloudy.6 mph79%29.80 "Hg10 mi
4:53 AM69 °FMostly cloudy.5 mph79%29.78 "Hg10 mi
3:53 AM69 °FOvercast.6 mph79%29.78 "Hg10 mi
2:53 AM69 °FOvercast.5 mph76%29.78 "Hg10 mi
1:53 AM69 °FOvercast.7 mph76%29.79 "Hg10 mi
12:53 AM70 °FOvercast.8 mph73%29.79 "Hg10 mi
11:53 PM
Sep 17
70 °FPassing clouds.8 mph66%29.78 "Hg10 mi
10:53 PM70 °FPassing clouds.10 mph68%29.79 "Hg10 mi
9:53 PM70 °FPassing clouds.9 mph71%29.78 "Hg10 mi
8:53 PM70 °FPassing clouds.12 mph61%29.78 "Hg10 mi
7:53 PM73 °FScattered clouds.14 mph51%29.75 "Hg10 mi
6:53 PM77 °FScattered clouds.13 mph40%29.73 "Hg10 mi
5:53 PM81 °FPassing clouds.13 mph29%29.73 "Hg10 mi
4:53 PM82 °FPassing clouds.7 mph40%29.73 "Hg10 mi
3:53 PM80 °FPassing clouds.8 mph45%29.74 "Hg10 mi
2:53 PM78 °FPassing clouds.15 mph50%29.75 "Hg10 mi
1:53 PM82 °FPassing clouds.12 mph44%29.75 "Hg10 mi
Weather by CustomWeather, © 2014

See weather overviewHow to use our weather pages